"Pseudo-MPEC" for P12oEEW

Created 2026 Jul 26 18:35:10 UT using Find_Orb

Click here for an explanation of pseudo-MPECs

 
 Astrometry: 
     P12oEEW*0C2026 07 25.56987423 02 37.792-06 12 02.11   ~7PJZ 20.38wXNEOCPF51
     P12oEEW 0C2026 07 25.58051023 02 34.327-06 13 10.25   ~7PJZ 20.56wXNEOCPF51
     P12oEEW 0C2026 07 25.59112623 02 30.904-06 14 17.46   ~7PJZ 20.30wXNEOCPF51
     P12oEEW KB2026 07 26.12439823 01 28.814-07 05 19.36   ~7Q5o 19.8 GXNEOCPJ43
     P12oEEW KB2026 07 26.13534723 01 25.937-07 06 13.43   ~7Q5o 20.4 GXNEOCPJ43
     P12oEEW KB2026 07 26.14628523 01 23.129-07 07 06.24   ~7Q5o 19.9 GXNEOCPJ43
     P12oEEW 0C2026 07 26.49567323 00 53.611-07 32 33.63   ~7QGZ 20.46GVNEOCPF52
     P12oEEW 0C2026 07 26.50549323 00 51.200-07 33 16.32   ~7QGZ       VNEOCPF52
     P12oEEW 0C2026 07 26.51484523 00 48.952-07 33 56.10   ~7QGZ 20.51GVNEOCPF52
     P12oEEW 0C2026 07 26.52452023 00 46.599-07 34 37.03   ~7QGZ 20.19GVNEOCPF52

Station data:
(F51) Pan-STARRS 1, Haleakala  (N20.707234 W156.255910)  US/Hawaii.
   Observers J. Herman, T. Lowe, P. Minguez, A. Schultz, I. Smith. Measurers
   K. Chambers, T. de Boer, J. Fairlamb, H. Gao, M. Huber, C.-C. Lin, E.
   Magnier, Y. Ramanjooloo, R. Wainscoat, R. Weryk. 1.8-m Ritchey-Chrétien +
   CCD.
(F52) Pan-STARRS 2, Haleakala  (N20.707382 W156.255910)  US/Hawaii.
   Observers J. Herman, T. Lowe, P. Minguez, A. Schultz, I. Smith. Measurers
   K. Chambers, T. de Boer, J. Fairlamb, H. Gao, M. Huber, C.-C. Lin, E.
   Magnier, Y. Ramanjooloo, R. Wainscoat, R. Weryk. 1.8-m Ritchey-Chrétien +
   CCD.
(J43) Oukaïmeden Observatory, Marrakech  (N31.206437 W7.866460)  Morocco.
   Observer C. Rinner. Measurers C. Rinner, M. Ory. 0.5-m f/3 reflector + CCD.

Orbital elements:  P12oEEW
   Perihelion 2026 Jun 25.037909 +/- 0.0314 TT =  0:54:35.3 (JD 2461216.537909)
Epoch 2026 Jul 26.0 TT = JDT 2461247.5   Earth MOID: 0.0017   Ma: 0.0117
M  12.066018639 +/- 0.10            (J2000 ecliptic)             AutoNEOCP
n   0.389702964 +/- 0.00295         Peri.  142.866137 +/- 0.0056
a   1.856294636 +/- 0.00936         Node   123.106873 +/- 0.0021
e   0.48138892 +/- 0.00273          Incl.    1.402348 +/- 0.0045
P   2.529/923.763d         H 27.05  G  0.15   U  8.8
q 0.962694954 +/- 0.000219    Q 2.749894319 +/- 0.0189
From 10 observations 2026 July 25-26 (22.9 hr); mean residual 0".21
Residuals in arcseconds: 
260725 F51  .08-  .02-    260726 J43  .30-  .30-    260726 F52  .00   .08-    
260725 F51  .03+  .07-    260726 J43  .23+  .44+    260726 F52  .07+  .10-    
260725 F51  .06+  .10+    260726 F52  .28+  .36+    
260726 J43  .01-  .30-    260726 F52  .34-  .16-    

Ephemerides (geocentric):
Date (UTC) HH   RA             Dec           delta  r     elong  mag " sig PA
---- --------  ------------   ------------  ------ ------ -----  --- --------
2026 07 26 19  23 00 17.356   -07 49 31.62  .02568 1.0354 140.2 20.7 .645 123
2026 07 26 20  23 00 13.545   -07 52 07.71  .02589 1.0356 140.3 20.7 .650 118
2026 07 26 21  23 00 09.787   -07 54 41.33  .02610 1.0358 140.3 20.8 .659 113
2026 07 26 22  23 00 06.080   -07 57 12.52  .02631 1.0359 140.4 20.8 .674 107
2026 07 26 23  23 00 02.424   -07 59 41.36  .02652 1.0361 140.5 20.8 .694 102
2026 07 27 00  22 59 58.817   -08 02 07.89  .02673 1.0363 140.5 20.8 .719  98
2026 07 27 01  22 59 55.258   -08 04 32.17  .02694 1.0365 140.6 20.8 .748  93
2026 07 27 02  22 59 51.745   -08 06 54.25  .02715 1.0367 140.7 20.8 .782  89
2026 07 27 03  22 59 48.278   -08 09 14.18  .02736 1.0368 140.7 20.9 .820  85
2026 07 27 04  22 59 44.855   -08 11 32.02  .02758 1.0370 140.8 20.9 .861  82
2026 07 27 05  22 59 41.476   -08 13 47.80  .02779 1.0372 140.9 20.9 .905  78
2026 07 27 06  22 59 38.139   -08 16 01.58  .02800 1.0374 140.9 20.9 .953  75
2026 07 27 07  22 59 34.843   -08 18 13.40  .02821 1.0376 141.0 20.9 1.00  73
2026 07 27 08  22 59 31.587   -08 20 23.31  .02842 1.0377 141.1 20.9 1.05  70
2026 07 27 09  22 59 28.371   -08 22 31.34  .02863 1.0379 141.1 20.9 1.11  68
2026 07 27 10  22 59 25.194   -08 24 37.54  .02884 1.0381 141.2 21.0 1.16  66
2026 07 27 11  22 59 22.054   -08 26 41.95  .02905 1.0383 141.3 21.0 1.22  64
2026 07 27 12  22 59 18.951   -08 28 44.60  .02926 1.0385 141.3 21.0 1.28  62
2026 07 27 13  22 59 15.884   -08 30 45.54  .02947 1.0387 141.4 21.0 1.34  60
2026 07 27 14  22 59 12.851   -08 32 44.80  .02968 1.0388 141.4 21.0 1.40  59
2026 07 27 15  22 59 09.853   -08 34 42.42  .02990 1.0390 141.5 21.0 1.46  57
2026 07 27 16  22 59 06.889   -08 36 38.43  .03011 1.0392 141.6 21.0 1.53  56
2026 07 27 17  22 59 03.957   -08 38 32.87  .03032 1.0394 141.6 21.1 1.59  55
2026 07 27 18  22 59 01.058   -08 40 25.76  .03053 1.0396 141.7 21.1 1.65  54
2026 07 27 19  22 58 58.189   -08 42 17.15  .03074 1.0398 141.8 21.1 1.72  53
2026 07 27 20  22 58 55.352   -08 44 07.05  .03095 1.0399 141.8 21.1 1.78  52
2026 07 27 21  22 58 52.544   -08 45 55.51  .03116 1.0401 141.9 21.1 1.85  51
2026 07 27 22  22 58 49.765   -08 47 42.55  .03137 1.0403 141.9 21.1 1.91  50
2026 07 27 23  22 58 47.016   -08 49 28.19  .03158 1.0405 142.0 21.1 1.98  49
2026 07 28 00  22 58 44.294   -08 51 12.48  .03180 1.0407 142.1 21.1 2.05  49
2026 07 28 01  22 58 41.599   -08 52 55.42  .03201 1.0409 142.1 21.2 2.11  48
2026 07 28 02  22 58 38.932   -08 54 37.06  .03222 1.0410 142.2 21.2 2.18  47
2026 07 28 03  22 58 36.291   -08 56 17.42  .03243 1.0412 142.2 21.2 2.25  47
2026 07 28 04  22 58 33.675   -08 57 56.51  .03264 1.0414 142.3 21.2 2.32  46
2026 07 28 05  22 58 31.085   -08 59 34.38  .03285 1.0416 142.4 21.2 2.38  46
2026 07 28 06  22 58 28.519   -09 01 11.03  .03306 1.0418 142.4 21.2 2.45  45
2026 07 28 07  22 58 25.978   -09 02 46.49  .03327 1.0420 142.5 21.2 2.52  45
2026 07 28 08  22 58 23.460   -09 04 20.79  .03349 1.0422 142.5 21.2 2.59  44
2026 07 28 09  22 58 20.965   -09 05 53.95  .03370 1.0423 142.6 21.3 2.65  44
2026 07 28 10  22 58 18.493   -09 07 25.98  .03391 1.0425 142.6 21.3 2.72  43
2026 07 28 11  22 58 16.042   -09 08 56.92  .03412 1.0427 142.7 21.3 2.79  43
2026 07 28 12  22 58 13.614   -09 10 26.78  .03433 1.0429 142.8 21.3 2.86  43
2026 07 28 13  22 58 11.207   -09 11 55.57  .03454 1.0431 142.8 21.3 2.92  42
2026 07 28 14  22 58 08.821   -09 13 23.33  .03475 1.0433 142.9 21.3 2.99  42
2026 07 28 15  22 58 06.455   -09 14 50.06  .03497 1.0435 142.9 21.3 3.06  41
2026 07 28 16  22 58 04.109   -09 16 15.80  .03518 1.0436 143.0 21.3 3.13  41
2026 07 28 17  22 58 01.783   -09 17 40.54  .03539 1.0438 143.0 21.4 3.19  41
2026 07 28 18  22 57 59.476   -09 19 04.32  .03560 1.0440 143.1 21.4 3.26  41